GFSGL_sfc_30mbdewp_057.txt.gz
Dewpoint
66 66 66 67 67 68 68 68 68 68 68 68 69 69 70 70 71 72 71 71 72 71 71 71 71 71 69 68 67 65 64 62 59 58 61 61 64 64 63 65 65 65 64
66 66 67 67 68 67 68 68 69 69 69 69 69 70 70 70 70 71 70 69 70 71 71 71 71 70 71 71 69 69 67 66 63 62 62 62 63 64 65 66 65 62 62
65 65 66 66 67 68 68 68 69 69 69 68 68 68 69 69 70 71 71 70 70 71 71 71 71 71 71 69 70 68 68 69 68 65 64 63 63 62 63 65 65 64 64
64 64 66 67 67 68 69 69 69 69 69 68 68 69 68 69 69 70 70 71 71 71 71 71 71 71 71 71 71 71 70 69 68 68 66 65 65 66 65 63 62 62 62
65 65 66 67 68 68 69 69 69 69 69 69 69 68 69 68 67 69 69 70 70 71 71 72 72 72 71 72 70 71 71 70 68 65 65 64 63 63 63 63 62 62 63
66 66 67 68 68 69 69 70 70 69 69 70 69 69 69 68 66 67 69 69 70 71 70 71 71 71 71 71 70 70 70 71 70 68 66 66 68 68 67 66 65 65 63
66 67 68 69 69 69 69 70 70 70 69 69 69 69 69 70 68 67 68 68 68 70 70 70 70 69 71 72 71 69 69 68 69 71 70 70 70 71 71 70 69 68 67
66 66 68 69 69 69 69 70 70 70 71 71 70 71 70 70 69 67 66 68 69 70 70 71 71 71 71 71 71 71 71 72 71 70 70 71 72 73 73 72 72 72 71
66 67 67 68 69 69 70 70 70 69 69 70 70 70 71 71 69 68 67 68 69 70 71 71 71 71 71 70 71 70 71 71 71 70 70 70 70 69 69 70 69 69 67
66 67 68 69 69 69 70 70 71 71 70 69 69 70 71 71 71 67 66 68 68 68 70 72 71 71 71 70 71 70 71 70 71 72 72 71 69 70 68 68 69 68 68
66 67 69 70 70 70 71 71 71 71 70 71 70 71 71 71 71 69 66 69 68 68 68 68 69 69 69 69 69 72 72 72 72 72 73 73 73 73 73 73 70 69 68
68 68 70 70 69 69 71 71 71 71 72 71 71 71 72 72 71 70 67 66 70 70 70 70 71 70 69 68 67 68 69 69 71 72 72 72 72 72 73 74 74 72 70
69 70 70 71 70 71 72 71 71 71 70 70 70 70 70 71 73 70 68 65 65 69 71 71 71 71 69 68 67 67 66 67 69 69 70 71 72 72 73 73 73 73 73
68 69 70 70 71 71 71 71 70 70 70 70 70 70 70 71 72 73 72 69 65 65 67 70 71 71 71 72 71 68 67 69 69 70 71 71 72 71 71 71 70 69 67
67 67 68 68 70 70 70 69 71 71 70 70 70 70 70 70 71 72 72 72 72 72 71 72 72 72 72 72 72 72 72 70 68 68 68 69 70 70 70 69 68 65 62
67 69 69 70 69 68 68 66 59 61 63 64 67 69 71 71 71 71 71 71 71 70 71 72 71 72 72 72 72 72 72 71 71 71 71 70 69 68 67 66 63 62 62
67 67 66 67 70 70 68 68 67 62 60 61 63 65 66 70 70 69 68 67 66 66 71 72 72 72 71 71 71 71 71 71 71 70 69 68 67 66 64 61 61 62 60
66 65 66 61 67 69 70 69 69 69 68 67 58 59 61 64 65 65 65 65 67 63 70 72 71 71 69 69 69 69 69 68 66 66 65 64 63 63 61 61 61 60 60
61 64 66 66 67 68 70 70 69 70 69 69 64 60 55 54 57 59 60 70 71 69 68 66 66 66 66 66 66 65 65 64 63 62 61 62 62 62 61 60 60 59 60
56 59 63 65 65 66 69 69 69 68 68 67 66 66 60 60 65 65 66 65 65 65 64 64 64 63 63 62 62 62 62 62 62 62 62 62 62 62 61 61 60 60 60
55 57 58 63 63 63 64 67 68 67 66 66 66 63 62 64 64 64 63 62 62 62 62 62 62 62 63 63 63 62 62 61 62 62 62 62 62 61 61 62 62 61 60
55 56 58 59 62 63 62 65 66 66 65 64 60 58 58 60 60 60 60 60 59 59 60 63 62 61 60 61 62 62 62 62 62 62 62 62 62 62 62 62 61 61 61
54 56 57 58 60 62 63 63 64 64 64 63 60 59 59 59 58 58 56 55 53 53 53 54 55 52 49 48 48 50 56 59 60 62 62 62 62 61 60 59 61 60 59
54 56 58 58 59 60 61 62 62 61 62 61 60 58 57 56 54 53 53 51 49 47 46 45 45 45 44 42 43 42 41 44 47 54 60 62 62 61 61 59 59 59 59
50 51 50 51 57 60 59 59 58 56 54 53 52 52 51 50 49 49 49 47 47 46 46 45 44 45 45 45 44 43 40 36 39 42 48 55 60 61 60 60 59 59 58
45 45 44 44 43 43 44 44 44 45 45 45 46 46 47 47 47 47 47 46 45 45 45 45 45 45 44 43 40 38 38 39 43 42 49 58 61 61 61 61 60 59 58

GFSGL_sfc_30mbdewp_060.txt.gz
Dewpoint
66 67 67 66 67 68 67 68 69 68 67 69 67 66 66 68 69 70 70 68 70 71 70 69 69 70 67 63 63 62 61 60 57 56 55 57 64 66 65 64 64 64 63
66 68 67 67 67 66 68 68 69 69 69 69 68 68 66 66 68 70 70 67 69 69 70 70 70 69 70 70 66 65 62 63 61 63 61 60 62 63 65 66 66 62 60
65 65 65 66 66 67 68 68 69 69 70 69 68 68 67 66 68 69 70 69 68 68 69 69 70 70 70 68 68 65 65 67 67 66 65 63 62 63 64 67 67 66 65
63 64 65 66 66 66 68 69 69 70 70 69 69 68 68 67 66 67 68 69 68 68 69 70 70 70 71 71 71 71 70 69 66 65 63 61 61 61 61 61 62 62 60
64 63 65 68 68 68 69 70 70 70 70 70 69 69 69 67 64 66 66 66 68 68 68 70 70 71 71 72 70 71 71 69 66 63 61 60 59 59 60 60 62 63 64
65 65 66 69 69 70 70 70 71 71 70 70 69 69 68 67 64 64 65 65 66 67 68 69 70 71 71 71 70 70 71 71 72 68 64 63 68 68 66 66 65 65 65
67 67 67 70 70 71 71 71 71 71 71 71 70 69 69 70 66 64 65 65 63 66 69 69 68 65 69 69 69 70 70 69 69 71 71 71 70 72 72 73 70 70 69
68 68 69 70 71 71 71 72 72 71 71 71 70 71 71 71 68 67 65 67 67 68 68 68 70 69 69 67 68 68 69 70 72 71 71 71 71 72 72 73 73 73 72
68 69 70 70 70 71 71 71 71 71 71 71 70 71 71 71 68 68 67 67 67 69 69 70 70 70 70 69 69 69 69 69 66 67 69 69 70 70 70 71 70 70 69
67 69 70 71 71 71 71 72 72 71 70 69 69 71 71 72 71 68 68 68 66 66 69 71 70 69 70 69 70 69 70 68 68 69 71 72 69 71 69 70 72 70 70
66 66 69 70 71 71 72 72 72 71 69 71 69 70 71 71 72 68 66 69 66 65 64 63 65 66 68 68 67 70 70 70 71 72 73 73 74 73 73 74 75 74 72
67 67 69 70 69 69 72 72 71 71 71 71 71 70 70 71 70 69 66 67 69 67 66 64 67 68 66 66 67 69 69 69 71 71 71 71 71 71 72 74 75 75 73
68 69 69 70 70 70 71 71 71 72 69 70 69 69 68 69 71 70 67 66 67 69 69 69 69 69 68 68 67 68 67 70 71 71 72 72 72 73 74 74 73 74 73
69 69 70 70 70 69 70 71 70 69 69 67 68 67 68 68 69 70 71 67 65 67 69 70 71 71 71 72 72 71 71 71 71 72 72 72 73 73 72 72 71 70 67
69 69 69 70 70 70 70 69 69 69 68 68 67 67 67 67 68 70 71 72 71 70 70 71 71 71 71 72 72 73 73 74 72 72 72 71 70 71 71 71 69 67 62
67 67 67 67 69 69 69 70 63 65 64 65 67 68 69 69 71 70 71 71 70 70 71 70 71 72 72 72 73 73 74 73 73 71 70 71 71 71 69 68 65 61 61
69 69 70 70 68 69 70 69 68 65 63 63 64 66 68 67 69 69 68 66 66 70 72 71 71 72 72 73 73 72 72 73 73 72 72 71 70 68 66 63 60 61 60
66 64 65 65 65 66 67 67 69 69 68 67 62 64 63 64 66 67 66 67 68 66 72 73 73 74 73 72 72 72 71 71 70 70 69 68 65 63 62 60 60 60 60
64 66 66 65 66 66 64 67 69 69 68 69 70 61 56 56 60 61 62 72 72 72 71 72 72 70 70 70 69 69 68 68 68 67 64 63 62 61 61 60 59 60 59
57 58 61 66 67 67 70 69 69 69 69 69 67 68 64 62 66 66 65 68 71 73 72 71 69 68 68 67 66 66 65 64 63 62 61 60 61 61 60 60 59 60 60
51 54 56 62 62 64 65 67 66 67 69 69 69 66 64 69 70 68 68 69 69 69 68 68 67 66 64 64 64 63 62 61 60 60 60 61 61 60 61 61 60 60 60
51 51 54 57 60 59 58 57 60 63 64 66 67 63 61 64 65 65 65 64 62 62 62 64 63 63 62 63 63 62 61 60 60 61 61 62 62 62 61 61 61 60 60
50 52 53 53 54 58 61 58 57 58 60 62 63 62 62 63 62 61 60 59 59 58 57 58 59 58 57 57 57 58 59 61 62 62 62 62 62 61 61 60 60 60 59
53 53 54 56 56 55 55 56 58 62 62 62 61 62 61 60 59 58 56 55 53 53 52 52 52 51 51 51 50 49 47 46 49 56 60 61 62 61 61 60 59 59 59
47 47 47 47 49 50 53 54 55 55 54 53 56 57 56 56 55 54 53 52 51 49 48 47 47 47 47 46 46 44 42 38 41 43 49 56 58 60 61 60 58 58 58
42 42 42 42 42 42 42 42 42 42 42 42 43 45 47 48 49 49 48 47 47 46 45 44 44 42 41 38 35 35 36 38 42 41 46 54 57 59 61 61 59 59 58

GFSGL_sfc_30mbdewp_063.txt.gz
Dewpoint
69 70 69 69 68 69 70 70 70 69 69 69 68 67 67 68 69 71 71 68 70 70 70 66 68 70 66 61 61 60 59 58 56 56 55 57 63 68 67 67 66 66 64
68 69 69 70 68 68 69 69 71 71 71 70 70 69 68 67 69 71 69 67 68 68 69 70 68 67 71 71 67 67 62 63 60 62 61 62 64 66 67 68 66 66 65
67 67 68 69 69 67 70 70 71 72 72 69 70 71 70 68 69 71 72 70 69 69 69 69 69 70 71 68 69 65 63 66 66 65 65 65 64 63 64 67 69 68 68
63 64 66 68 68 68 69 70 71 72 72 72 72 72 71 69 68 68 69 71 70 69 69 69 70 70 71 72 71 72 71 69 66 65 64 63 63 63 63 61 61 62 63
63 63 65 68 69 69 68 70 71 72 72 73 73 72 72 69 67 68 68 69 70 69 69 69 70 70 69 72 70 70 70 69 67 65 63 62 61 60 62 64 63 65 66
64 63 64 68 69 69 69 70 71 72 72 73 72 72 71 68 65 64 67 67 68 69 70 71 70 70 70 69 70 71 71 72 73 68 65 63 66 66 65 65 68 67 68
65 65 66 68 69 70 70 71 71 72 73 73 73 73 72 72 66 64 63 65 66 68 69 70 70 65 69 71 71 70 70 70 69 71 71 71 70 71 72 73 70 70 71
65 68 67 69 70 71 71 71 72 73 73 73 73 73 73 73 70 66 64 66 66 67 68 70 70 69 70 70 71 70 71 72 73 71 72 72 73 74 74 73 73 72 73
68 67 69 69 70 72 72 72 73 73 73 73 73 74 74 73 69 68 66 67 67 69 69 69 69 71 72 70 69 69 69 69 67 65 66 67 69 70 70 70 69 70 71
68 69 70 70 71 72 73 73 73 74 73 71 72 73 74 74 72 67 67 68 67 67 70 71 70 70 70 69 71 71 70 71 71 69 70 70 68 69 68 69 71 72 71
68 69 71 72 72 73 74 74 74 74 71 73 72 72 73 73 74 69 66 70 67 65 65 63 65 67 67 67 67 70 71 72 71 70 71 72 73 74 75 75 75 74 73
68 69 71 72 71 72 74 74 74 74 73 73 73 72 71 73 72 69 67 67 70 68 65 59 61 61 62 65 65 67 68 68 69 70 71 71 71 71 71 74 75 76 76
69 70 71 72 73 72 73 74 73 73 70 70 70 69 67 67 71 69 66 67 68 70 68 65 68 69 66 63 63 66 67 70 71 71 71 71 70 70 75 75 75 75 74
70 71 71 72 72 72 72 72 71 69 70 67 68 67 66 64 62 66 69 66 65 68 69 69 69 69 69 71 72 68 70 72 72 72 71 70 72 73 74 74 72 72 71
70 70 70 70 71 71 70 69 69 68 67 66 63 63 61 63 64 66 67 71 70 70 70 70 69 69 70 70 71 72 73 73 73 72 71 71 73 72 72 72 72 71 68
69 69 68 68 70 69 69 69 64 66 65 66 66 69 70 68 68 64 67 69 71 69 70 69 69 69 69 69 70 71 72 73 74 74 73 72 72 72 72 71 71 69 63
70 69 68 67 68 68 68 68 68 65 64 65 66 66 67 66 68 67 65 66 69 70 71 70 69 68 71 71 72 73 73 74 74 74 73 72 72 72 70 69 66 63 61
68 66 69 69 68 68 68 68 67 68 67 68 65 65 62 63 65 66 68 68 70 70 71 70 69 69 70 71 73 73 73 73 73 73 72 71 71 69 67 64 62 61 60
63 65 66 67 68 70 70 68 68 68 68 69 66 64 60 61 63 62 64 71 70 70 70 70 72 73 73 73 73 73 73 72 71 70 70 70 70 67 63 61 60 59 60
60 61 62 67 68 67 63 62 62 64 66 67 67 68 63 65 66 68 67 69 70 72 73 72 72 72 72 71 71 71 70 69 68 67 67 65 62 61 60 59 59 59 60
57 57 58 60 66 62 60 64 65 63 62 68 68 67 66 69 69 70 69 70 71 71 71 71 70 69 69 69 68 67 66 66 65 63 62 61 60 60 60 60 60 59 59
51 52 53 56 60 64 63 65 63 63 64 65 68 64 64 67 67 70 70 69 67 67 67 67 66 65 65 65 64 64 63 62 61 61 61 61 61 60 60 61 60 60 60
53 52 51 54 57 57 59 57 56 59 59 58 62 64 64 65 64 64 64 64 63 62 63 64 64 61 61 60 59 59 58 58 60 61 61 61 62 61 62 62 61 60 60
50 50 50 51 51 54 54 58 59 58 59 60 61 61 63 63 61 60 58 57 57 57 57 57 56 55 54 54 53 52 46 45 46 51 55 59 60 61 61 62 61 60 60
44 44 44 44 46 46 46 47 48 49 49 50 51 52 53 56 56 55 55 55 54 53 52 51 50 49 46 43 42 41 37 35 41 42 46 54 56 58 61 61 60 60 59
40 40 41 41 41 41 41 41 40 40 41 41 41 40 41 44 45 47 47 46 46 43 39 39 38 38 35 33 31 30 29 29 34 34 41 49 54 56 57 56 60 62 61

GFSGL_sfc_30mbdewp_069.txt.gz
Dewpoint
68 69 66 65 70 70 67 66 69 68 70 72 72 73 73 73 72 71 70 70 70 70 69 70 70 70 67 69 70 70 67 64 60 60 64 66 67 66 66 67 66 66 66
69 68 69 66 67 68 69 66 67 68 69 72 72 72 71 71 72 73 70 70 71 69 69 71 70 70 69 70 70 67 68 69 67 64 65 63 64 65 66 67 68 70 69
69 68 69 69 66 67 66 69 66 70 67 69 71 71 71 71 70 71 72 70 70 70 70 70 70 71 69 70 69 69 69 68 70 69 68 69 70 69 69 69 69 70 71
69 70 69 69 69 66 66 65 70 69 72 71 71 71 72 71 70 71 71 71 71 71 72 71 71 72 71 71 71 71 71 70 69 69 69 69 69 69 69 69 68 68 69
69 70 70 70 70 70 68 67 64 71 69 71 72 72 72 72 71 70 71 72 71 71 71 71 72 72 72 72 72 72 72 71 71 71 70 70 70 68 68 69 69 70 68
68 70 70 70 70 70 70 69 66 66 71 69 69 71 72 72 71 71 70 70 73 72 71 72 72 71 71 71 71 72 73 72 72 72 71 70 70 70 69 69 68 67 68
65 69 69 70 70 70 70 70 70 66 67 71 72 72 72 72 71 70 70 69 68 71 72 71 71 71 71 71 70 68 68 68 69 69 68 68 69 69 69 69 69 70 70
65 66 68 69 70 70 70 70 70 70 69 68 69 71 72 72 72 70 69 69 69 69 71 72 71 71 70 70 70 70 70 69 68 68 68 69 70 71 71 71 71 72 73
66 66 68 69 69 70 69 70 70 70 71 70 71 72 72 72 72 71 68 66 68 69 70 70 70 71 71 70 70 70 71 72 73 71 71 71 70 70 70 72 72 71 69
65 67 68 68 69 69 70 69 70 70 69 71 70 71 72 72 72 71 69 69 67 67 68 69 70 71 71 69 69 68 67 67 68 68 70 69 69 69 69 69 70 69 68
68 69 69 68 69 69 70 70 70 70 69 69 71 71 72 73 73 71 69 71 70 68 67 67 69 68 66 66 67 69 70 70 71 71 71 72 72 71 72 72 69 70 71
67 69 69 70 68 70 70 70 70 70 70 70 70 71 71 72 72 72 69 68 71 70 68 68 67 68 68 67 66 66 66 66 68 69 70 69 69 69 71 72 73 75 75
65 69 69 71 69 69 70 70 71 70 70 70 70 70 71 72 73 71 70 68 68 70 70 69 69 68 66 64 65 65 64 65 66 67 67 68 69 71 72 74 75 75 74
63 68 71 71 71 69 72 71 71 71 71 71 71 71 71 71 72 73 70 67 67 66 69 69 68 68 68 70 69 64 62 65 66 66 67 69 72 73 73 74 73 72 71
61 67 72 70 71 71 71 72 72 72 72 71 71 71 71 71 72 72 73 71 70 69 69 70 69 70 70 70 70 71 68 67 68 70 71 72 72 73 73 73 72 71 71
59 66 70 70 72 72 71 69 64 68 71 71 72 72 71 69 71 71 69 70 70 68 68 70 70 70 70 70 69 69 72 71 71 72 72 73 73 73 72 72 71 72 71
58 61 65 70 71 72 72 71 69 65 61 63 67 71 70 69 64 64 65 64 66 67 69 70 70 70 70 71 70 70 70 73 74 73 73 73 73 72 71 71 71 72 70
57 59 62 68 69 70 72 72 72 68 68 68 62 63 65 66 65 66 63 61 63 69 70 69 70 71 72 72 72 72 72 73 73 73 73 73 72 72 71 72 71 69 69
55 57 60 63 69 68 71 72 72 70 69 68 62 62 60 60 62 64 68 70 69 69 71 71 71 71 72 72 71 72 71 71 71 72 73 73 72 71 70 70 69 68 64
56 58 60 64 67 66 67 69 71 71 70 66 66 66 63 64 67 68 66 67 70 71 71 71 69 68 65 60 61 70 71 71 70 71 71 71 71 70 69 63 62 61 61
54 57 56 58 61 62 63 66 67 68 68 68 68 66 64 66 65 64 64 67 68 68 66 67 71 67 66 69 69 66 68 70 70 70 69 68 68 66 63 62 62 62 62
51 52 54 54 55 58 57 58 63 65 66 67 67 63 64 66 67 70 67 64 62 59 58 62 55 57 56 53 53 55 54 53 54 57 62 62 62 62 62 62 62 62 61
46 48 48 49 50 52 53 53 53 54 57 63 65 64 61 60 60 58 57 56 55 52 50 49 47 44 44 44 43 42 45 45 46 50 54 56 59 61 61 61 62 61 60
43 43 44 43 44 45 45 47 48 48 48 48 51 53 54 56 55 55 52 49 45 47 46 43 40 39 39 38 38 37 36 35 40 44 47 52 54 55 58 61 61 61 61
39 40 40 40 40 40 40 40 41 42 43 45 44 43 43 44 45 45 43 41 39 36 34 34 34 32 31 31 31 31 31 32 33 36 41 47 50 53 54 55 56 60 61
38 38 38 38 38 38 38 38 37 38 38 39 39 40 41 40 38 38 38 35 32 32 31 30 30 30 30 30 31 30 30 31 32 34 41 42 42 47 50 51 51 52 54

GFSGL_sfc_30mbdewp_072.txt.gz
Dewpoint
67 66 64 64 67 69 67 66 67 69 69 69 71 71 70 71 71 71 70 69 70 69 69 69 68 70 69 68 69 69 68 65 61 61 63 66 66 65 65 66 67 67 67
67 67 65 64 65 68 69 66 67 68 69 71 72 71 71 72 71 70 69 69 69 69 68 69 69 71 70 69 69 68 67 68 67 65 65 66 66 67 68 68 68 69 70
67 67 67 65 63 65 68 69 66 67 68 72 72 72 72 72 72 71 70 70 70 71 70 69 69 69 69 69 68 69 68 68 68 68 69 69 70 69 69 69 68 68 70
66 67 67 67 65 63 65 67 69 66 67 68 72 71 71 71 71 72 72 71 70 70 70 70 70 70 69 69 70 70 70 70 70 69 68 68 69 70 69 69 68 69 69
67 67 66 68 68 66 63 65 66 68 67 69 69 71 71 71 70 70 70 70 70 70 71 71 71 71 71 71 71 70 71 70 70 69 69 70 70 70 70 70 69 68 68
67 67 68 67 69 69 66 64 65 65 68 69 70 70 70 71 70 70 70 70 70 70 70 71 71 71 71 71 71 71 71 70 70 70 70 70 71 70 69 68 68 67 67
67 68 68 69 68 69 70 67 66 65 63 68 68 71 71 72 70 69 70 70 70 71 71 70 71 71 72 71 70 69 69 71 72 72 70 70 69 68 68 68 69 69 69
66 67 69 70 70 69 69 70 69 68 65 64 69 68 68 70 71 70 70 70 70 69 70 72 71 71 71 71 70 70 70 70 68 67 68 68 68 69 70 70 70 70 71
65 65 67 71 70 70 70 69 70 69 68 66 66 71 71 70 70 70 69 70 70 69 69 69 71 71 71 70 70 69 69 70 71 70 69 68 68 68 69 70 69 69 69
65 66 67 69 70 70 70 70 70 70 69 69 68 67 68 70 71 70 69 70 69 69 69 69 69 70 70 70 70 69 69 69 68 68 68 68 68 69 69 68 70 69 69
63 64 65 67 69 69 70 71 70 70 69 70 70 69 70 71 71 70 68 71 70 69 68 67 68 68 67 67 67 68 68 68 68 69 70 71 71 72 72 72 69 69 69
62 62 64 66 70 69 70 70 70 69 70 69 69 70 70 71 71 70 69 68 71 71 69 68 68 67 66 66 66 67 68 67 67 67 68 68 69 70 70 70 71 71 71
60 62 63 65 70 68 69 69 69 69 69 69 68 68 70 71 71 70 69 68 68 71 71 70 69 67 65 65 65 65 64 64 65 66 67 67 68 69 69 71 73 74 75
58 60 62 65 70 70 69 69 68 69 68 68 69 69 69 69 71 71 70 68 67 67 70 70 70 68 67 67 66 65 63 64 65 66 67 67 68 69 69 72 73 74 72
57 58 61 65 68 71 69 69 69 69 69 69 69 69 69 70 70 71 72 71 70 70 70 70 69 68 68 67 68 69 67 65 65 66 66 67 68 69 71 73 73 72 70
55 57 59 61 64 71 71 68 64 66 68 69 69 70 70 70 71 70 70 70 70 69 68 70 70 70 69 69 69 69 70 69 68 68 68 69 70 71 72 72 72 71 70
54 56 57 60 63 70 71 69 69 65 63 66 67 69 70 71 69 68 69 68 65 65 71 70 70 70 70 70 70 70 70 70 71 70 70 71 72 72 72 72 71 70 70
53 55 57 59 61 66 70 72 71 69 70 69 64 67 67 67 69 68 64 63 63 64 70 70 70 70 70 70 70 70 70 70 71 72 72 73 72 72 71 70 70 70 70
53 55 57 58 62 65 68 71 72 70 69 69 65 63 60 62 61 61 60 66 66 66 69 70 70 71 71 71 72 72 72 72 71 71 70 67 69 70 69 69 69 70 69
53 54 55 56 59 61 65 67 70 71 70 68 67 68 62 63 67 67 67 69 68 67 69 70 70 70 70 69 64 65 68 67 67 69 69 69 66 63 60 68 66 64 61
50 51 52 53 53 57 58 63 67 70 70 67 67 67 65 69 69 69 67 65 66 66 67 69 69 67 65 64 64 63 62 66 68 69 67 63 61 60 66 64 62 62 62
47 49 48 48 49 48 51 54 57 64 68 67 64 63 64 67 67 65 60 56 54 53 53 53 51 50 51 53 56 61 60 58 58 61 63 64 64 64 63 62 62 61 61
44 45 45 44 46 45 44 48 50 50 57 63 62 61 60 58 56 54 52 49 47 46 46 46 46 44 44 45 44 44 48 49 50 54 57 58 61 61 61 61 61 61 60
42 41 42 42 42 42 42 40 42 47 47 47 48 50 49 47 45 44 42 42 41 41 40 39 39 39 39 38 38 38 39 40 45 46 50 53 54 55 56 57 58 59 60
39 39 39 39 39 39 39 39 39 40 40 43 43 42 42 42 41 40 39 38 37 36 35 36 36 36 36 35 35 36 36 37 42 42 47 50 51 51 51 51 52 54 58
38 38 38 38 38 37 37 37 37 38 38 38 38 38 39 39 39 39 39 38 37 37 37 36 35 34 33 33 34 34 33 34 36 36 38 37 38 41 47 49 50 50 51

GFSGL_sfc_30mbdewp_075.txt.gz
Dewpoint
65 65 65 65 68 68 66 66 67 69 69 69 70 71 70 70 71 70 70 69 69 69 69 69 68 68 69 68 68 69 67 64 62 63 63 66 66 66 67 68 68 69 69
65 65 64 64 65 67 67 67 67 67 68 69 69 70 71 70 70 70 70 70 69 68 69 68 68 69 69 70 69 67 67 67 66 64 65 66 68 68 69 69 70 70 69
65 65 64 64 64 64 67 68 67 67 67 68 70 70 70 70 70 70 70 70 69 69 69 69 68 69 68 69 69 68 68 68 68 67 68 69 69 69 69 70 70 70 70
65 66 65 64 64 63 64 67 68 67 67 67 70 71 71 71 71 71 70 70 70 69 70 70 70 69 69 68 68 69 69 69 69 69 68 68 68 70 70 69 69 69 69
64 66 66 66 65 63 63 64 67 68 66 67 68 71 71 71 71 71 71 71 71 70 70 70 70 70 70 70 69 69 69 69 69 69 68 69 69 69 69 70 69 68 68
65 65 66 67 67 65 63 63 64 66 67 67 67 67 70 71 70 70 70 70 71 70 70 70 71 71 71 70 70 71 71 70 69 69 69 68 69 69 70 69 67 67 67
66 66 66 67 67 68 66 64 63 64 64 65 67 68 67 69 70 69 69 69 69 69 69 69 69 70 71 71 70 69 69 69 70 70 70 70 69 70 69 67 67 68 68
65 66 67 68 67 68 69 67 65 64 64 63 64 66 69 69 69 68 68 69 69 69 70 70 70 69 70 71 71 70 70 70 69 68 69 70 71 70 69 68 68 69 70
66 65 67 69 69 68 68 69 69 67 65 65 64 63 65 66 69 69 68 69 69 69 70 69 70 71 71 70 70 69 69 69 70 69 69 68 68 67 67 68 69 68 68
63 66 67 68 70 70 69 69 69 70 68 68 66 65 66 67 66 67 68 70 69 70 70 70 69 69 69 69 69 69 68 68 69 69 69 69 68 68 67 67 69 68 68
60 62 64 65 67 68 70 71 70 70 70 69 69 68 66 68 70 67 66 69 68 68 69 68 69 68 67 67 67 69 69 69 68 68 68 68 69 70 70 70 69 69 69
58 60 62 64 65 68 70 70 71 70 70 69 69 69 69 68 67 67 67 67 70 69 68 69 69 68 67 66 64 66 67 67 67 68 68 68 68 68 70 71 71 70 71
57 57 59 62 64 66 69 69 70 71 70 69 69 69 69 70 69 68 66 65 67 70 70 70 69 68 66 64 63 65 64 65 66 66 65 66 67 68 69 69 70 70 71
55 56 57 60 62 65 68 71 70 70 70 69 69 68 68 69 70 70 68 66 65 66 69 70 70 69 68 67 65 64 63 64 65 65 66 67 68 68 68 69 69 71 73
53 53 56 59 60 62 65 71 70 70 70 69 68 69 68 68 69 70 70 70 70 69 69 69 70 69 69 69 67 67 66 65 64 65 65 65 66 66 67 69 71 72 72
50 52 54 56 58 60 63 69 66 67 69 68 68 69 70 69 69 68 68 69 69 68 68 70 70 70 70 70 70 69 68 67 66 66 66 67 67 67 68 70 72 72 71
49 51 53 55 58 59 61 65 70 67 64 64 65 67 67 70 68 68 67 67 65 65 70 70 70 70 70 70 70 70 69 69 70 69 68 68 69 69 69 70 71 71 70
49 51 54 56 57 58 61 64 68 70 69 68 66 64 64 65 67 67 65 62 64 61 70 71 71 71 71 70 70 70 70 70 70 70 70 70 70 70 71 71 70 69 68
48 51 54 54 55 57 60 64 67 70 70 70 69 64 62 62 62 61 60 68 69 67 67 69 71 71 71 71 71 71 71 70 70 70 71 71 71 71 68 66 64 59 62
47 50 52 52 53 54 57 59 62 67 69 70 69 69 64 61 65 65 62 65 68 69 69 68 70 71 71 71 71 71 70 70 70 71 71 69 68 66 64 61 61 60 59
45 48 50 50 50 49 51 54 56 59 65 70 69 68 66 67 68 69 67 66 66 67 67 68 69 69 69 68 67 68 68 68 68 68 69 67 64 62 62 63 63 62 64
45 46 47 46 47 47 46 48 51 52 55 65 66 63 63 66 66 61 57 55 52 51 51 52 51 51 51 53 57 63 64 63 64 65 67 66 63 63 64 64 64 63 62
43 43 44 44 44 44 44 43 44 47 47 50 55 56 56 53 51 49 46 45 45 44 44 44 45 44 45 45 46 47 52 53 51 54 60 63 63 63 63 63 62 62 61
41 40 41 40 41 41 41 41 41 41 44 44 44 45 45 45 43 43 42 41 41 41 41 40 39 39 40 40 40 40 39 41 45 49 51 56 59 59 61 61 61 61 60
39 39 38 38 38 38 39 39 40 40 39 40 41 42 41 41 40 40 39 39 38 38 37 37 36 36 37 37 37 36 36 40 42 46 49 52 54 54 54 54 55 56 58
38 38 38 37 37 37 37 37 37 38 38 38 38 38 38 39 39 39 39 39 39 38 38 38 38 37 37 36 35 35 36 37 39 42 46 47 47 46 48 51 52 51 52